Location: Newark
(45.8667°N, 9.7333°E)
Time: 15:38:01
(UTC+00:00)

Transit 4A - Pass Details

Date: 24 January 2020
Orbit: 872 x 973 km, 66.8° (Epoch: 23 February)

Event Time Altitude Azimuth Distance (km) Brightness Sun altitude
Rises 13:07:56 0° 330° (NNW) 3,477 10.6 21.4°
Reaches altitude 10° 13:10:54 10° 344° (NNW) 2,531 9.8 21.2°
Maximum altitude 13:15:38 25° 39° (NE) 1,701 8.9 20.9°
Drops below altitude 10° 13:20:22 10° 93° (E) 2,530 10.0 20.5°
Sets 13:23:20 0° 107° (ESE) 3,474 10.8 20.3°
